Regional Weather Roundup
Issued by NWS State College, PA

Home | Current Version | Previous Version | Text Only | Print | Product List | Glossary On
Versions: 1 2 3 4 5 6 7 8 9 10 11 12 13 14 15 16 17 18 19 20 21 22 23 24 25 26 27 28 29 30 31 32 33 34 35 36 37 38 39 40 41 42 43 44 45 46 47 48 49 50
000
ASUS41 KCTP 231610
RWRCTP

REGIONAL WEATHER ROUNDUP
NATIONAL WEATHER SERVICE STATE COLLEGE PA
1200 PM EDT WED JUL 23 2014

Note: "fair" indicates few or no clouds below 12,000 feet with no
significant weather and/or obstructions to visibility.

* = STATION THAT DOES NOT REPORT PRECIPITATION /E.G. RAIN...SNOW...ETC/
    THUNDER OR FOG.

PAZ002>004-007>009-013>016-020>023-029>032-231700-
WESTERN PENNSYLVANIA

CITY           SKY/WX    TMP DP  RH WIND       PRES   REMARKS
ERIE           CLOUDY    70  65  84 NW9       29.95R
MEADVILLE      PTSUNNY   77  66  68 W12       29.96S
FRANKLIN*      PTSUNNY   79  68  69 W9        29.97F
NEW CASTLE       N/A     78  68  71 W9        29.97R
BEAVER COUNTY  CLOUDY    77  66  69 NW10G18   29.98R
BUTLER*        PTSUNNY   79  70  73 W8        29.97S
PITTSBURGH INT CLOUDY    80  71  74 W8        29.96S
PITTSBURGH     PTSUNNY   80  69  69 S13       29.93F
INDIANA*       PTSUNNY   81  70  69 SW12      29.99F
LATROBE        PTSUNNY   81  72  74 SW14      29.97F
WASHINGTON CO* CLOUDY    79  70  73 S10       29.94F
$$

PAZ004>006-010>012-017>019-024>028-033>037-041-042-045-046-049>053-231700-
CENTRAL PENNSYLVANIA

CITY           SKY/WX    TMP DP  RH WIND       PRES   REMARKS
BRADFORD       CLOUDY    77  67  71 W9        29.97F
DUBOIS         MOSUNNY   80  70  71 W9        29.96F
CLEARFIELD     PTSUNNY   81  68  64 W9        29.96S
JOHNSTOWN      MOSUNNY   78  64  61 SW16      30.00F
ALTOONA        PTSUNNY   83  72  69 SW13      29.97F
STATE COLLEGE  MOSUNNY   82  72  69 SW8       29.94F
WILLIAMSPORT   MOSUNNY   85  71  63 VRB6      29.88F
SELINSGROVE    MOSUNNY   86  73  65 VRB5      29.89F
FT INDIANTOWN  MOSUNNY   84  76  75 SW10      29.93F
CAPITAL CITY   MOSUNNY   86  71  60 W6        29.91F
HARRISBURG     MOSUNNY   87  72  60 SE5       29.91F
YORK           SUNNY     87  72  60 SW3       29.93F
$$

PAZ038>040-043-044-047-048-054-055-060>062-067>071-231700-
EASTERN PENNSYLVANIA

CITY           SKY/WX    TMP DP  RH WIND       PRES   REMARKS
SCRANTON       SUNNY     86  69  56 W8        29.91F
MOUNT POCONO   PTSUNNY   82  67  60 SW10      29.98F
ALLENTOWN      SUNNY     86  72  62 SW7       29.91F
QUAKERTOWN*    SUNNY     84  73  70 SE6       29.94F
READING        SUNNY     86  72  62 MISG      29.91F
LANCASTER      MOSUNNY   84  72  67 SW5       29.92F
COATESVILLE    SUNNY     84  73  70 S6        29.96F
POTTSTOWN      PTSUNNY   84  72  67 VRB6      29.94F
BLUE BELL      MOSUNNY   88  73  62 SW8       29.92F HX  96
DOYLESTOWN     MOSUNNY   85  71  63 VRB7      29.92F
WILLOW GROVE   NOT AVBL
NORTH PHILA    SUNNY     87  71  58 S9        29.93F
PHILADELPHIA   MOSUNNY   87  70  56 S13       29.93F
$$



USA.gov is the U.S. government's official web portal to all federal, state and local government web resources and services.